Tracking 28790 objects as of 19-Apr-2024
HD Live streaming from Space Station
objects crossing your sky now

DELTA 1 DEB

Track DELTA 1 DEB now!
10-day predictions


NORAD ID: 10838
Int'l Code: 1976-077CJ
Perigee: 1,478.8 km
Apogee: 1,541.6 km
Inclination: 101.6 °
Period: 116.1 minutes
Semi major axis: 7881 km
RCS: 0.072 m2 (small)
Launch date: July 29, 1976
Source: United States (US)
Launch site: AIR FORCE WESTERN TEST RANGE (AFWTR)

Note: This is SATELLITE DEBRIS
Your satellite tracking list
Your tracking list is empty




NASA's NSSDC Master Catalog

Two Line Element Set (TLE):
1 10838U 76077CJ  24108.05035382 -.00000019  00000-0  17881-3 0  9997
2 10838 101.6446 144.1754 0039825 219.0966 198.9258 12.40842255160956
Source of the keplerian elements: AFSPC